Regional Weather Roundup
Issued by NWS Goodland, KS

Home | Current Version | Previous Version | Graphics & Text | Print | Product List | Glossary On
Versions: 1 2 3 4 5 6 7 8 9 10 11 12 13 14 15 16 17 18 19 20 21 22 23 24 25 26 27 28 29 30 31 32 33 34 35 36 37 38 39 40 41 42 43 44 45 46 47 48 49 50
000
ASUS43 KGLD 300959
RWRGLD

GOODLAND FORECAST AREA HOURLY WEATHER ROUNDUP
NATIONAL WEATHER SERVICE GOODLAND KS
300 AM MST FRI JAN 30 2015

...OFFICIAL OBSERVATIONS...

CITY           SKY/WX    TMP DP  RH WIND       PRES   REMARKS
GOODLAND KS    MOCLDY    29  21  72 S12       30.39F WCI  19
HILL CITY KS   PTCLDY    16  12  84 W3        30.47F
IMPERIAL NEB   CLOUDY    28  21  75 SE7       30.38F
MCCOOK NEB     MOCLDY    20  15  81 CALM      30.43F
AKRON CO       CLOUDY    34  20  56 S16       30.29F
BURLINGTON CO  MOCLDY    30  21  69 S12       30.36F
LIMON CO       MOCLDY    30  21  69 SE16      30.29F WCI  19
$$

...UNOFFICIAL OBSERVATIONS...

CITY           SKY/WX    TMP DP  RH WIND       PRES   REMARKS
COLBY KS       CLEAR     28  25  86 S8        30.42F
GOVE KS          N/A     17  32 100 MISG        N/A
NORTON KS      CLEAR     19  14  79 SW5       30.44F
SHARON SPRINGS   N/A     29  22  74 S12         N/A  WCI  19
KIT CARSON CO    N/A     27  19  72 MISG        N/A
YUMA CO          N/A     26  19  74 CALM        N/A
$$


USA.gov is the U.S. government's official web portal to all federal, state and local government web resources and services.